Weather History for PHOG - July, 2013

Change the Weather History Date:

Wednesday, July 17, 2013

  Actual Average Record
Temperature  
Mean Temperature 82 °F 79 °F  
Max Temperature 89 °F 87 °F 93 °F (1951)
Min Temperature 74 °F 71 °F 63 °F (1971)
Degree Days  
Heating Degree Days 0 0  
Month to date heating degree days 0 0  
Since 1 June heating degree days 0 0  
Since 1 July heating degree days 0 0  
Cooling Degree Days 17 14  
Month to date cooling degree days 246 238  
Year to date cooling degree days 2072 1885  
Since 1 June cooling degree days 688 626  
Growing Degree Days 31 (Base 50)    
Moisture  
Dew Point 71 °F    
Average Humidity 72    
Maximum Humidity 87    
Minimum Humidity 56    
Precipitation  
Precipitation T in 0.02 in 0.24 in (1954)
Month to date precipitation 0.05 0.24  
Year to date precipitation 7.31 9.94  
Snow  
Snow 0.00 in - - ()
Month to date snowfall 0.0  
Since 1 June snowfall 0.0  
Since 1 July snowfall 0.0  
Snow Depth 0.00 in    
Sea Level Pressure  
Sea Level Pressure 29.99 in    
Wind  
Wind Speed 16 mph (ENE)    
Max Wind Speed 26 mph    
Max Gust Speed 36 mph    
Visibility 10 miles    
Events Rain    
T = Trace of Precipitation, MM = Missing Value Source: NWS Daily Summary

Daily Weather History Graph

Daily Weather History Graph

Search for Another Location

Airport or City:

Trip Planner

Search our weather history database for the weather conditions in past years. The results will help you decide how hot, cold, wet, or windy it might be!

Date:

Astronomy

Jul. 17, 2013 Rise Set
Actual Time 5:54 AM HST 7:09 PM HST
Civil Twilight 5:29 AM HST 7:33 PM HST
Nautical Twilight 5:01 AM HST 8:02 PM HST
Astronomical Twilight 4:31 AM HST 8:32 PM HST
Moon 2:19 PM HST (7/17) 12:56 AM HST (7/17)
Length of Visible Light 14h 03m
Length of Day
13h 15m
Waxing Gibbous, 69% of the Moon is Illuminated
Jul 17
Waxing Gibbous
Jul 22
Full
Jul 29
Last Quarter
Aug 6
New
Aug 14
First Quarter

Hourly Weather History & Observations

Time (HST) Temp. Heat Index Dew Point Humidity Pressure Visibility Wind Dir Wind Speed Gust Speed Precip Events Conditions
12:54 AM 77.0 °F - 71.1 °F 82% 29.99 in 10.0 mi ENE 17.3 mph 26.5 mph N/A   Mostly Cloudy
1:54 AM 75.0 °F - 72.0 °F 90% 29.98 in 10.0 mi ENE 18.4 mph 26.5 mph N/A   Scattered Clouds
2:54 AM 75.9 °F - 68.0 °F 76% 29.97 in 10.0 mi ENE 9.2 mph - N/A   Mostly Cloudy
3:54 AM 77.0 °F - 66.9 °F 71% 29.97 in 10.0 mi East 12.7 mph 20.7 mph N/A   Overcast
4:54 AM 75.0 °F - 66.0 °F 73% 29.97 in 10.0 mi NE 11.5 mph - N/A   Clear
5:54 AM 73.9 °F - 68.0 °F 82% 29.98 in 10.0 mi ENE 11.5 mph - N/A   Clear
6:54 AM 77.0 °F - 71.1 °F 82% 30.01 in 10.0 mi NE 12.7 mph - N/A   Partly Cloudy
7:54 AM 80.1 °F 83.2 °F 70.0 °F 71% 30.01 in 10.0 mi ENE 13.8 mph 23.0 mph N/A   Partly Cloudy
8:54 AM 82.0 °F 86.3 °F 71.1 °F 69% 30.01 in 10.0 mi NE 17.3 mph 28.8 mph N/A   Partly Cloudy
9:54 AM 84.9 °F 90.7 °F 72.0 °F 65% 30.01 in 10.0 mi ENE 17.3 mph 25.3 mph N/A   Partly Cloudy
10:54 AM 86.0 °F 93.8 °F 73.9 °F 67% 30.00 in 10.0 mi ENE 20.7 mph 28.8 mph N/A   Scattered Clouds
12:54 PM 86.0 °F 93.0 °F 73.0 °F 65% 29.98 in 10.0 mi ENE 23.0 mph 31.1 mph N/A   Scattered Clouds
1:54 PM 87.1 °F 93.6 °F 72.0 °F 61% 29.96 in 10.0 mi ENE 23.0 mph 32.2 mph N/A   Scattered Clouds
2:54 PM 89.1 °F 96.0 °F 72.0 °F 57% 29.96 in 10.0 mi ENE 18.4 mph 31.1 mph N/A   Scattered Clouds
3:54 PM 87.1 °F 94.5 °F 73.0 °F 63% 29.94 in 10.0 mi ENE 13.8 mph 29.9 mph 0.00 in   Scattered Clouds
4:54 PM 84.0 °F 89.6 °F 72.0 °F 67% 29.95 in 10.0 mi ENE 18.4 mph 32.2 mph N/A   Scattered Clouds
5:54 PM 82.0 °F 86.7 °F 72.0 °F 71% 29.95 in 10.0 mi ENE 18.4 mph 27.6 mph N/A   Scattered Clouds
6:54 PM 79.0 °F - 71.1 °F 77% 29.97 in 10.0 mi ENE 16.1 mph 26.5 mph N/A   Scattered Clouds
7:54 PM 75.9 °F - 72.0 °F 87% 29.99 in 10.0 mi ENE 17.3 mph 26.5 mph N/A   Partly Cloudy
8:54 PM 75.0 °F - 71.1 °F 87% 30.01 in 10.0 mi ENE 13.8 mph - N/A   Clear
9:54 PM 75.9 °F - 71.1 °F 85% 30.03 in 10.0 mi ENE 16.1 mph 25.3 mph N/A   Scattered Clouds
10:54 PM 75.9 °F - 72.0 °F 87% 30.04 in 10.0 mi ENE 13.8 mph 19.6 mph N/A   Mostly Cloudy
11:54 PM 75.9 °F - 72.0 °F 87% 30.03 in 10.0 mi NE 11.5 mph - 0.00 in Rain Light Rain